User: anonymous   Login
Location: Fours
(44.3167°N, 6.7000°E)
Time: 22:56:02
(UTC+00:00)
Language:

ONEWEB-0412 - Orbit

View from above orbital plane
View from above orbital plane
View from above satellite
View from above satellite

Ground track
Ground track

The orbit data is extracted from the following two-line orbital elements,

1 50489U 21132W   22222.58334491  .00051178  00000-0  49237-2 0  9991
2 50489  87.2226 276.3016 0003137 126.1462 162.7455 14.92750756  1306
Epoch (UTC): 10 August 2022 14:00:01
Eccentricity: 0.0003137
inclination: 87.2226°
perigee height: 587 km
apogee height: 591 km
right ascension of ascending node: 276.3016°
argument of perigee: 126.1462°
revolutions per day: 14.92750756
mean anomaly at epoch: 162.7455°
orbit number at epoch: 130

The dashed part of the orbit path shows where the satellite is in the earth's shadow,  

DLR